Location: Austin
(30.3000°N, 97.7500°W)
Time: 22:49:35
(UTC-05:00)

Cosmos 1980 Rocket - Pass Details

Date: 06 May 2026
Orbit: 826 x 850 km, 71.0° (Epoch: 13 May)

Event Time Altitude Azimuth Distance (km) Brightness Sun altitude
Rises 22:08:07 0° 0° (N) 3,416 5.9 -22.8°
Reaches altitude 10° 22:11:38 10° 22° (NNE) 2,475 4.8 -23.4°
Enters shadow 22:14:50 16° 57° (ENE) 2,077 4.0 -23.9°
